Location: Igon
(43.1667°N, 0.2333°W)
Time: 07:29:53
(UTC+00:00)

NOAA 16 DEB - Pass Details

Date: 17 June 2021
Orbit: 682 x 809 km, 98.9° (Epoch: 03 August)

Event Time Altitude Azimuth Distance (km) Brightness Sun altitude
Rises 03:20:57 0° 147° (SSE) 3,297 ? -9.3°
Reaches altitude 10° 03:23:19 10° 142° (SE) 2,380 ? -8.9°
Maximum altitude 03:28:22 48° 69° (ENE) 1,060 ? -8.3°
Drops below altitude 10° 03:33:28 10° 357° (N) 2,404 ? -7.6°
Sets 03:35:53 0° 352° (N) 3,334 ? -7.3°
